timestamp,surface_pressure_avg,surface_temp_avg,battery_voltage,lat,long
2020-02-26 00:09:01+00:00,329.5131,-0.3,12.65,47.84626,-54.09684
2020-02-26 00:19:01+00:00,331.478,-0.29,12.65,47.84626,-54.09684
2020-02-26 00:29:01+00:00,343.408,-0.3,12.65,47.84626,-54.09684
2020-02-26 00:39:01+00:00,347.273,-0.3,12.65,47.84626,-54.09684
2020-02-26 00:49:01+00:00,345.0263,-0.27,12.65,47.84626,-54.09684
2020-02-26 00:59:01+00:00,349.9113,-0.24,12.65,47.84626,-54.09684
2020-02-26 01:09:01+00:00,356.3546,-0.24,12.65,47.84626,-54.09684
2020-02-26 01:19:01+00:00,352.1163,-0.24,12.57,47.84626,-54.09684
2020-02-26 01:29:01+00:00,348.3045,-0.24,12.57,47.84626,-54.09684
2020-02-26 01:39:01+00:00,350.2279,-0.24,12.57,47.84626,-54.09684
2020-02-26 01:49:01+00:00,345.4746,-0.3,12.57,47.84626,-54.09684
2020-02-26 01:59:01+00:00,339.1513,-0.3,12.57,47.84626,-54.09684
2020-02-26 02:09:01+00:00,337.9547,-0.3,12.57,47.84626,-54.09684
2020-02-26 02:19:01+00:00,339.4047,-0.3,12.57,47.84626,-54.09684
2020-02-26 02:29:01+00:00,332.4846,-0.3,12.57,47.84626,-54.09684
2020-02-26 02:39:01+00:00,327.9863,-0.3,12.57,47.84626,-54.09684
2020-02-26 02:49:01+00:00,327.3347,-0.3,12.57,47.84626,-54.09684
2020-02-26 02:59:01+00:00,327.8796,-0.26,12.57,47.84626,-54.09684
2020-02-26 03:09:01+00:00,322.7813,-0.24,12.57,47.84626,-54.09684
2020-02-26 03:19:01+00:00,315.5563,-0.25,12.57,47.84626,-54.09684
2020-02-26 03:29:01+00:00,311.1163,-0.25,12.57,47.84626,-54.09684
2020-02-26 03:39:01+00:00,310.4014,-0.24,12.57,47.84626,-54.09684
2020-02-26 03:49:01+00:00,303.508,-0.27,12.57,47.84626,-54.09684
2020-02-26 03:59:01+00:00,295.548,-0.3,12.57,47.84626,-54.09684
2020-02-26 04:09:01+00:00,292.7213,-0.3,12.57,47.84626,-54.09684
2020-02-26 04:19:01+00:00,286.5664,-0.3,12.57,47.84626,-54.09684
2020-02-26 04:29:01+00:00,279.048,-0.3,12.57,47.84626,-54.09684
2020-02-26 04:39:01+00:00,269.173,-0.3,12.57,47.84626,-54.09684
2020-02-26 04:49:01+00:00,266.3514,-0.3,12.57,47.84626,-54.09684
2020-02-26 04:59:01+00:00,258.1664,-0.3,12.57,47.84626,-54.09684
2020-02-26 05:09:01+00:00,244.8898,-0.3,12.57,47.84626,-54.09684
2020-02-26 05:19:01+00:00,235.1431,-0.3,12.57,47.84626,-54.09684
2020-02-26 05:29:01+00:00,228.5631,-0.3,12.57,47.84626,-54.09684
2020-02-26 05:39:01+00:00,219.5148,-0.3,12.57,47.84626,-54.09684
2020-02-26 05:49:01+00:00,206.6832,-0.3,12.57,47.84626,-54.09684
2020-02-26 05:59:01+00:00,200.8581,-0.3,12.57,47.84626,-54.09684
2020-02-26 06:09:01+00:00,200.5114,-0.3,12.57,47.84626,-54.09684
2020-02-26 06:19:01+00:00,192.0764,-0.3,12.49,47.84626,-54.09684
2020-02-26 06:29:01+00:00,188.7764,-0.3,12.49,47.84626,-54.09684
2020-02-26 06:39:01+00:00,195.5464,-0.3,12.49,47.84626,-54.09684
2020-02-26 06:49:01+00:00,193.743,-0.3,12.49,47.84626,-54.09684
2020-02-26 06:59:01+00:00,188.2781,-0.3,12.49,47.84626,-54.09684
2020-02-26 07:09:01+00:00,192.9765,-0.3,12.49,47.84626,-54.09684
2020-02-26 07:19:01+00:00,198.0147,-0.3,12.49,47.84626,-54.09684
2020-02-26 07:29:01+00:00,198.0081,-0.3,12.49,47.84626,-54.09684
2020-02-26 07:39:01+00:00,195.1664,-0.3,12.49,47.84626,-54.09684
2020-02-26 07:49:01+00:00,200.4398,-0.3,12.49,47.84626,-54.09684
2020-02-26 07:59:01+00:00,210.7747,-0.3,12.49,47.84626,-54.09684
2020-02-26 08:09:01+00:00,208.8248,-0.3,12.49,47.84626,-54.09684
2020-02-26 08:19:01+00:00,206.8965,-0.3,12.49,47.84626,-54.09684
2020-02-26 08:29:01+00:00,214.8431,-0.3,12.49,47.84626,-54.09684
2020-02-26 08:39:01+00:00,223.1098,-0.3,12.49,47.84626,-54.09684
2020-02-26 08:49:01+00:00,225.0748,-0.3,12.49,47.84626,-54.09684
2020-02-26 08:59:01+00:00,226.2831,-0.3,12.49,47.84626,-54.09684
2020-02-26 09:09:01+00:00,232.9247,-0.3,12.49,47.84626,-54.09684
2020-02-26 09:19:01+00:00,240.3381,-0.3,12.49,47.84626,-54.09684
2020-02-26 09:29:01+00:00,244.8514,-0.28,12.49,47.84626,-54.09684
2020-02-26 09:39:01+00:00,246.2514,-0.26,12.49,47.84626,-54.09684
2020-02-26 09:49:01+00:00,254.4731,-0.26,12.49,47.84626,-54.09684
2020-02-26 09:59:01+00:00,264.6598,-0.26,12.49,47.84626,-54.09684
2020-02-26 10:09:01+00:00,267.7714,-0.23,12.49,47.84626,-54.09684
2020-02-26 10:19:01+00:00,268.4831,-0.23,12.49,47.84626,-54.09684
2020-02-26 10:29:01+00:00,281.623,-0.25,12.49,47.84626,-54.09684
2020-02-26 10:39:01+00:00,288.4165,-0.23,12.49,47.84626,-54.09684
2020-02-26 10:49:01+00:00,287.048,-0.21,12.49,47.84626,-54.09684
2020-02-26 10:59:01+00:00,294.203,-0.23,12.49,47.84626,-54.09684
2020-02-26 11:09:01+00:00,308.5397,-0.23,12.49,47.84626,-54.09684
2020-02-26 11:19:01+00:00,309.3729,-0.21,12.49,47.84626,-54.09684
2020-02-26 11:29:01+00:00,305.9613,-0.21,12.49,47.84626,-54.09684
2020-02-26 11:39:01+00:00,317.1429,-0.21,12.49,47.84626,-54.09684
2020-02-26 11:49:01+00:00,325.8063,-0.2,12.49,47.84626,-54.09684
2020-02-26 11:59:01+00:00,322.558,-0.2,12.49,47.84626,-54.09684
2020-02-26 12:09:01+00:00,332.5613,-0.22,12.49,47.84626,-54.09684
2020-02-26 12:19:01+00:00,348.0829,-0.22,12.65,47.84626,-54.09684
2020-02-26 12:29:01+00:00,349.4063,-0.2,12.65,47.84626,-54.09684
2020-02-26 12:39:01+00:00,344.00800000000015,-0.21,12.65,47.84626,-54.09684
2020-02-26 12:49:01+00:00,353.4496,-0.22,12.65,47.84626,-54.09684
2020-02-26 12:59:01+00:00,362.7513,-0.21,12.65,47.84626,-54.09684
2020-02-26 13:09:01+00:00,360.8228,-0.2,12.65,47.84626,-54.09684
2020-02-26 13:19:01+00:00,364.7762,-0.22,13.05,47.84626,-54.09684
2020-02-26 13:29:01+00:00,376.1979,-0.21,13.05,47.84626,-54.09684
2020-02-26 13:39:01+00:00,376.9346,-0.2,13.05,47.84626,-54.09684
2020-02-26 13:49:01+00:00,369.5946,-0.21,13.05,47.84626,-54.09684
2020-02-26 13:59:01+00:00,375.1546,-0.22,13.05,47.84626,-54.09684
2020-02-26 14:09:01+00:00,375.5563,-0.2,13.05,47.84626,-54.09684
2020-02-26 14:19:01+00:00,364.2546,-0.2,14.0,47.84626,-54.09684
2020-02-26 14:29:01+00:00,360.1779,-0.2,14.0,47.84626,-54.09684
2020-02-26 14:39:01+00:00,364.6097,-0.2,14.0,47.84626,-54.09684
2020-02-26 14:49:01+00:00,363.2379,-0.2,14.0,47.84626,-54.09684
2020-02-26 14:59:01+00:00,358.1312,-0.2,14.0,47.84626,-54.09684
2020-02-26 15:09:01+00:00,356.5496,-0.2,14.0,47.84626,-54.09684
2020-02-26 15:19:01+00:00,351.413,-0.2,14.4,47.84626,-54.09684
2020-02-26 15:29:01+00:00,341.4763,-0.2,14.4,47.84626,-54.09684
2020-02-26 15:39:01+00:00,333.9279,-0.2,14.4,47.84626,-54.09684
2020-02-26 15:49:01+00:00,329.6697,-0.2,14.4,47.84626,-54.09684
2020-02-26 15:59:01+00:00,321.7679,-0.2,14.4,47.84626,-54.09684
2020-02-26 16:09:01+00:00,313.0446,-0.2,14.4,47.84626,-54.09684
2020-02-26 16:19:01+00:00,304.483,-0.2,14.32,47.84626,-54.09684
2020-02-26 16:29:01+00:00,300.6929,-0.2,14.32,47.84626,-54.09684
2020-02-26 16:39:01+00:00,297.0197,-0.2,14.32,47.84626,-54.09684
2020-02-26 16:49:01+00:00,293.843,-0.2,14.32,47.84626,-54.09684
2020-02-26 16:59:01+00:00,282.373,-0.2,14.32,47.84626,-54.09684
2020-02-26 17:09:01+00:00,274.3781,-0.2,14.32,47.84626,-54.09684
2020-02-26 17:19:01+00:00,267.4014,-0.2,14.32,47.84626,-54.09684
2020-02-26 17:29:01+00:00,256.3414,-0.2,14.32,47.84626,-54.09684
2020-02-26 17:39:01+00:00,241.5547,-0.2,14.32,47.84626,-54.09684
2020-02-26 17:49:01+00:00,233.9531,-0.2,14.32,47.84626,-54.09684
2020-02-26 17:59:01+00:00,226.6481,-0.2,14.32,47.84626,-54.09684
2020-02-26 18:09:01+00:00,217.1281,-0.2,14.32,47.84626,-54.09684
2020-02-26 18:19:01+00:00,208.4764,-0.2,14.16,47.84626,-54.09684
2020-02-26 18:29:01+00:00,205.3882,-0.15,14.16,47.84626,-54.09684
2020-02-26 18:39:01+00:00,202.6065,-0.13,14.16,47.84626,-54.09684
2020-02-26 18:49:01+00:00,192.9448,-0.12,14.16,47.84626,-54.09684
2020-02-26 18:59:01+00:00,183.3748,-0.12,14.16,47.84626,-54.09684
2020-02-26 19:09:01+00:00,180.9498,-0.11,14.16,47.84626,-54.09684
2020-02-26 19:19:01+00:00,178.0382,-0.1,14.08,47.84626,-54.09684
2020-02-26 19:29:01+00:00,178.0565,-0.11,14.08,47.84626,-54.09684
2020-02-26 19:39:01+00:00,184.1798,-0.11,14.08,47.84626,-54.09684
2020-02-26 19:49:01+00:00,186.2081,-0.13,14.08,47.84626,-54.09684
2020-02-26 19:59:01+00:00,186.1814,-0.14,14.08,47.84626,-54.09684
2020-02-26 20:09:01+00:00,195.3281,-0.14,14.08,47.84626,-54.09684
2020-02-26 20:19:01+00:00,202.9948,-0.15,13.76,47.84626,-54.09684
2020-02-26 20:29:01+00:00,204.7114,-0.17,13.76,47.84626,-54.09684
2020-02-26 20:39:01+00:00,211.0231,-0.16,13.76,47.84626,-54.09684
2020-02-26 20:49:01+00:00,214.1948,-0.14,13.76,47.84626,-54.09684
2020-02-26 20:59:01+00:00,219.3448,-0.2,13.76,47.84626,-54.09684
2020-02-26 21:09:01+00:00,232.0798,-0.18,13.76,47.84626,-54.09684
2020-02-26 21:19:01+00:00,238.2131,-0.15,13.29,47.84626,-54.09684
2020-02-26 21:29:01+00:00,236.7314,-0.16,13.29,47.84626,-54.09684
2020-02-26 21:39:01+00:00,241.1097,-0.18,13.29,47.84626,-54.09684
2020-02-26 21:49:01+00:00,249.3431,-0.17,13.29,47.84626,-54.09684
2020-02-26 21:59:01+00:00,249.5564,-0.18,13.29,47.84626,-54.09684
2020-02-26 22:09:01+00:00,249.4081,-0.17,13.29,47.84626,-54.09684
2020-02-26 22:19:01+00:00,257.1131,-0.18,12.89,47.84626,-54.09684
2020-02-26 22:29:01+00:00,262.2631,-0.15,12.89,47.84626,-54.09684
2020-02-26 22:39:01+00:00,259.5381,-0.14,12.89,47.84626,-54.09684
2020-02-26 22:49:01+00:00,264.6331,-0.17,12.89,47.84626,-54.09684
2020-02-26 22:59:01+00:00,276.9547,-0.2,12.89,47.84626,-54.09684
2020-02-26 23:09:01+00:00,283.6879,-0.2,12.89,47.84626,-54.09684
2020-02-26 23:19:01+00:00,279.6014,-0.19,12.65,47.84626,-54.09684
2020-02-26 23:29:01+00:00,282.2181,-0.2,12.65,47.84626,-54.09684
2020-02-26 23:39:01+00:00,294.9614,-0.2,12.65,47.84626,-54.09684
2020-02-26 23:49:01+00:00,301.3998,-0.18,12.65,47.84626,-54.09684
2020-02-26 23:59:01+00:00,302.5947,-0.16,12.65,47.84626,-54.09684
